Rain From: 23-01-2018 23:00 Until: 24-01-2018 09:00 warning for: Rain Level: Yellow info button
A spell of rain, heavy at times, is expected and will be accompanied by strong winds. Flooding of a few homes and business is likely. Bus and train services will probably be affected and spray and flooding is expected on roads, this all making journey times longer. 
^^
WesterhopeWX Station Historical Data
 
Daily Summary for January 24, 2018 Units:  Metric    English   Both
Daily Weekly Monthly Yearly Custom
  Current: High: Low: Average:
Temperature: 9.8 °C 11.1 °C 8.4 °C 9.8 °C
Dew Point: 7.7 °C 7.9 °C 5.0 °C 6.3 °C
Humidity: 87% 87% 76% 79%
Wind Speed: 19.5km/h 24.1km/h 3.2km/h 10.6km/h
Wind Gust: 24.1km/h 45.1km/h - -
WindSW - - SSW
Pressure: 986.3 hPa 999.5 hPa 986.3 hPa -
Precipitation: 0.5 mm      
Historical Graphs
 
 
Tabular Data for January 24, 2018
Time Temperature Dew Point Pressure Wind Wind Speed Wind Gust Humidity Rainfall Rate (Hourly) solar
00:05 8.4 °C 5.0 °C 999.2 hPa SSW 3.2 km/h 9.7 km/h 79% 0.0 mm 0.0 W/m2
00:15 8.6 °C 5.0 °C 999.2 hPa SW 7.9 km/h 19.3 km/h 78% 0.0 mm 0.0 W/m2
00:20 8.8 °C 5.2 °C 999.5 hPa SSW 4.7 km/h 16.1 km/h 78% 0.0 mm 0.0 W/m2
00:30 9.0 °C 5.2 °C 998.5 hPa SSW 7.9 km/h 14.5 km/h 77% 0.0 mm 0.0 W/m2
00:35 9.1 °C 5.3 °C 998.5 hPa SW 6.4 km/h 11.3 km/h 77% 0.0 mm 0.0 W/m2
00:40 9.2 °C 5.4 °C 998.2 hPa SW 4.7 km/h 20.9 km/h 77% 0.0 mm 0.0 W/m2
00:45 9.3 °C 5.3 °C 998.2 hPa SW 16.3 km/h 20.9 km/h 76% 0.0 mm 0.0 W/m2
00:51 9.4 °C 5.4 °C 997.9 hPa SW 16.3 km/h 22.5 km/h 76% 0.0 mm 0.0 W/m2
00:56 9.3 °C 5.3 °C 997.9 hPa SW 14.3 km/h 20.9 km/h 76% 0.0 mm 0.0 W/m2
01:01 9.3 °C 5.3 °C 997.9 hPa WSW 11.1 km/h 12.9 km/h 76% 0.0 mm 0.0 W/m2
01:11 9.3 °C 5.3 °C 997.2 hPa SSE 14.3 km/h 17.7 km/h 76% 0.0 mm 0.0 W/m2
01:16 9.2 °C 5.2 °C 996.8 hPa SSW 9.7 km/h 14.5 km/h 76% 0.0 mm 0.0 W/m2
01:21 9.1 °C 5.3 °C 996.8 hPa SE 7.9 km/h 11.3 km/h 77% 0.0 mm 0.0 W/m2
01:26 9.2 °C 5.4 °C 996.5 hPa South 3.2 km/h 12.9 km/h 77% 0.0 mm 0.0 W/m2
01:31 9.1 °C 5.3 °C 996.2 hPa SSW 7.9 km/h 14.5 km/h 77% 0.0 mm 0.0 W/m2
01:36 9.1 °C 5.5 °C 996.2 hPa South 4.7 km/h 16.1 km/h 78% 0.0 mm 0.0 W/m2
01:47 9.0 °C 5.6 °C 995.8 hPa South 6.4 km/h 9.7 km/h 79% 0.0 mm 0.0 W/m2
01:57 9.1 °C 5.7 °C 995.1 hPa SSE 3.2 km/h 9.7 km/h 79% 0.0 mm 0.0 W/m2
02:02 9.2 °C 5.7 °C 995.1 hPa WSW 14.3 km/h 14.5 km/h 79% 0.0 mm 0.0 W/m2
02:07 9.3 °C 5.7 °C 995.1 hPa SSW 9.7 km/h 19.3 km/h 78% 0.0 mm 0.0 W/m2
02:12 9.4 °C 5.8 °C 994.8 hPa SSW 9.7 km/h 20.9 km/h 78% 0.0 mm 0.0 W/m2
02:17 9.4 °C 5.8 °C 994.5 hPa South 3.2 km/h 16.1 km/h 78% 0.0 mm 0.0 W/m2
02:23 9.5 °C 5.9 °C 994.5 hPa South 7.9 km/h 19.3 km/h 78% 0.0 mm 0.0 W/m2
02:28 9.5 °C 5.7 °C 994.1 hPa SSE 17.7 km/h 20.9 km/h 77% 0.0 mm 0.0 W/m2
02:33 9.5 °C 5.9 °C 994.1 hPa SSW 14.3 km/h 14.5 km/h 78% 0.0 mm 0.0 W/m2
02:38 9.6 °C 6.0 °C 993.8 hPa SSW 13.0 km/h 22.5 km/h 78% 0.0 mm 0.0 W/m2
02:43 9.6 °C 6.0 °C 993.5 hPa SSE 6.4 km/h 19.3 km/h 78% 0.0 mm 0.0 W/m2
02:48 9.6 °C 6.0 °C 993.5 hPa South 11.1 km/h 12.9 km/h 78% 0.0 mm 0.0 W/m2
02:54 9.5 °C 6.0 °C 993.5 hPa WSW 6.4 km/h 20.9 km/h 79% 0.0 mm 0.0 W/m2
02:59 9.6 °C 6.1 °C 993.1 hPa South 22.7 km/h 29.0 km/h 79% 0.0 mm 0.0 W/m2
03:04 9.5 °C 6.0 °C 992.8 hPa South 9.7 km/h 17.7 km/h 79% 0.0 mm 0.0 W/m2
03:09 9.5 °C 6.2 °C 992.4 hPa SSW 11.1 km/h 25.7 km/h 80% 0.0 mm 0.0 W/m2
03:14 9.5 °C 6.2 °C 992.4 hPa SW 6.4 km/h 24.1 km/h 80% 0.0 mm 0.0 W/m2
03:19 9.7 °C 6.4 °C 992.4 hPa SSW 7.9 km/h 25.7 km/h 80% 0.0 mm 0.0 W/m2
03:25 9.8 °C 6.5 °C 992.1 hPa SW 6.4 km/h 16.1 km/h 80% 0.0 mm 0.0 W/m2
03:30 10.0 °C 6.7 °C 992.1 hPa SW 14.3 km/h 20.9 km/h 80% 0.0 mm 0.0 W/m2
03:35 10.2 °C 6.7 °C 991.4 hPa SW 3.2 km/h 25.7 km/h 79% 0.0 mm 0.0 W/m2
03:40 10.4 °C 6.7 °C 991.4 hPa SSW 6.4 km/h 24.1 km/h 78% 0.0 mm 0.0 W/m2
03:45 10.6 °C 6.9 °C 991.4 hPa South 9.7 km/h 22.5 km/h 78% 0.0 mm 0.0 W/m2
03:50 10.6 °C 6.9 °C 991.1 hPa SSW 7.9 km/h 17.7 km/h 78% 0.0 mm 0.0 W/m2
03:56 10.7 °C 7.0 °C 991.1 hPa SSW 9.7 km/h 27.4 km/h 78% 0.0 mm 0.0 W/m2
04:01 10.9 °C 7.0 °C 990.7 hPa SW 14.3 km/h 30.6 km/h 77% 0.0 mm 0.0 W/m2
04:06 10.9 °C 7.0 °C 990.7 hPa SSW 7.9 km/h 17.7 km/h 77% 0.0 mm 0.0 W/m2
04:11 10.9 °C 7.2 °C 990.1 hPa SW 11.1 km/h 25.7 km/h 78% 0.0 mm 0.0 W/m2
04:16 10.9 °C 7.2 °C 990.1 hPa SSW 6.4 km/h 35.4 km/h 78% 0.0 mm 0.0 W/m2
04:21 11.0 °C 7.1 °C 989.7 hPa WSW 19.5 km/h 33.8 km/h 77% 0.0 mm 0.0 W/m2
04:27 11.1 °C 7.2 °C 989.7 hPa SW 17.7 km/h 20.9 km/h 77% 0.0 mm 0.0 W/m2
04:32 11.1 °C 7.4 °C 989.4 hPa SSW 14.3 km/h 32.2 km/h 78% 0.0 mm 0.0 W/m2
04:37 10.9 °C 7.4 °C 989.1 hPa SSW 9.7 km/h 16.1 km/h 79% 0.0 mm 0.0 W/m2
04:42 10.8 °C 7.7 °C 988.7 hPa SSE 24.1 km/h 45.1 km/h 81% 0.0 mm 0.0 W/m2
04:47 10.7 °C 7.8 °C 988.4 hPa SSW 16.3 km/h 33.8 km/h 82% 0.3 mm 0.0 W/m2
04:52 10.5 °C 7.7 °C 988.0 hPa WSW 9.7 km/h 22.5 km/h 83% 0.3 mm 0.0 W/m2
04:58 10.4 °C 7.8 °C 987.7 hPa SE 14.3 km/h 19.3 km/h 84% 0.3 mm 0.0 W/m2
05:03 10.2 °C 7.8 °C 987.7 hPa SSW 11.1 km/h 24.1 km/h 85% 0.3 mm 0.0 W/m2
05:08 10.2 °C 7.8 °C 987.4 hPa SSW 11.1 km/h 33.8 km/h 85% 0.5 mm 0.0 W/m2
05:18 10.1 °C 7.9 °C 987.0 hPa SSW 9.7 km/h 29.0 km/h 86% 0.5 mm 0.0 W/m2
05:24 10.0 °C 7.8 °C 986.3 hPa WSW 20.9 km/h 25.7 km/h 86% 0.5 mm 0.0 W/m2
05:29 9.8 °C 7.7 °C 986.3 hPa SW 19.5 km/h 24.1 km/h 87% 0.5 mm 0.0 W/m2
Westerhope, Newcastle upon Tyne, UK
Compliments of Weather Underground - 4 mb